ATLAS 5 CENTAUR DEB, 43973

Orbit data source: Space-Track

ATLAS 5 CENTAUR DEB, 43973 is space debris in HEO originally from a launch on Wed, 17 Sep 2014 UTC launched from the Air Force Eastern Test Range (AFETR). Debris objects in space refer to the collection of defunct objects orbiting the Earth. Examples of debris include non-operational satellites, rocket bodies, and fragments generated from explosions, collisions, or faulty payload assembly.

Loading next visibility...
Identifier
43973, 2014-055AC
Orbit
HEO
Country
Flag of USUS
Related business
Flag of USUnited Launch Alliance/Lockheed Martin (US)
Manufacturer
Unknown
Mission
Spacecraft
Bus & Motor
Unknown
Mass
Unknown
Launch date (UTC)
2014-09-17 (12 years ago)
Launch vehicle
Unknown
Launch site
Air Force Eastern Test Range (AFETR)
Object type
Payload
Rocket body
Debris
Shape & HBR
Unknown shape, 1.1 m
Radar Cross Section
Medium (>0.1 m² and <1 m²)

Expand to show TLE details & history
Last TLE update: 6 days ago

TLE from 6 days ago
0 ATLAS 5 CENTAUR DEB
1 43973U 14055AC  26231.17997630 -.00000027  00000-0  00000-0 0  9997
2 43973  21.0451 101.1246 5005723 248.1794  52.5595  1.92498690 56070
Epoch: 2026-08-19T04:19Z
TLE epoch observation values (Epoch: 2026-08-19T04:19:09.952Z)
Latitude
0.00001°
Longitude
68.87373°
Altitude
18,776.626 km
Speed
4.134 km/s
True Right ascension
06h 44m 48s
True Declination
0° 00' 00"
Sunlit
Object was in daylight at epoch
Visualization orbit readout
Latitude
Unknown
Longitude
Unknown
Altitude
Unknown
Speed
Unknown
Apparent Right ascension
Unknown
Apparent Declination
Unknown
Sunlit
N/A
Visualization observer readout
Local Sidereal Time
01:50:28
Azimuth
Unknown
Elevation
Unknown
Doppler factor
Unknown
Orbital elements
Apogee altitude
34,586.184 km
Perigee altitude
7,255.806 km
Semi-major axis
27,299.132 km
Eccentricity
0.50057
Inclination
21.0451°
RAAN
101.1246°
Arg. of periapsis
248.1794°
True anomaly
111.80875°
Mean anomaly
52.5595°
Eccentric anomaly
80.87741°
Mean motion
0.48119 °/min
Orbital period
748.14 mins
BSTAR
0
Loading maneuver chart data...
Computing Atmospheric mass density...

Documentation

Showing up to 5 results
|